Regional Weather Roundup
Issued by NWS

Home | Current Version | Previous Version | Graphics & Text | Print | Product List | Glossary On
Versions: 1 2 3 4 5 6 7 8 9 10 11 12 13 14 15 16 17 18 19 20 21 22 23 24 25 26 27 28 29 30 31 32 33 34 35 36 37 38 39 40 41 42 43 44
000
ASUS45 KBOU 172110
RWRCO

WEATHER ROUNDUP FOR COLORADO
NATIONAL WEATHER SERVICE DENVER/BOULDER CO
200 PM MST SAT FEB 17 2018

NOTE: "FAIR" INDICATES FEW OR NO CLOUDS BELOW 12000 FEET WITH NO
SIGNIFICANT WEATHER AND/OR OBSTRUCTIONS TO VISIBILITY.

COZ001>005-013-030-031-172200-
...NORTHWEST COLORADO...

CITY           SKY/WX    TMP DP  RH WIND       PRES   REMARKS
CRAIG          FAIR      38  16  40 VRB3      30.07F
HAYDEN         FAIR      37  15  40 SE3       30.09F
MEEKER         FAIR      43  15  32 SW18G25   30.09F
RANGELY        FAIR      48  11  22 NW6       30.07F
RABBIT EARS PA FAIR      25  16  68 SW8G18    30.05F WCI  16
STEAMBOAT SPGS FAIR      35  11  36 CALM      30.07F
WALDEN         FAIR      36   5  27 S15G24    30.03F
$$

COZ006>008-011-172200-
...WEST CENTRAL VALLEYS...

CITY           SKY/WX    TMP DP  RH WIND       PRES   REMARKS
GRAND JUNCTION FAIR      47  21  35 W5        30.15F
MONTROSE       FAIR      48  17  29 N6        30.16F
EAGLE          FAIR      42  14  32 W15G23    30.13F
RIFLE          FAIR      41  13  31 CALM      30.15F
DELTA          FAIR      53  12  19 S3        30.15F
NUCLA          FAIR      50  14  23 NW3       30.19F
$$

COZ017>023-064>068-172200-
...SOUTHWEST COLORADO...

CITY           SKY/WX    TMP DP  RH WIND       PRES   REMARKS
DURANGO        FAIR      48  19  31 SW10      30.16F
CORTEZ         FAIR      51  16  24 SW12      30.17F
PAGOSA SPRINGS FAIR      42  11  28 S3        30.19F
TELLURIDE      FAIR      40  -8  13 W12       30.21F
WOLF CREEK PAS   N/A     21  21 100 SW12      30.27S WCI   9
$$

COZ009-010-012-014-032>034-037-058>063-172200-
...CENTRAL COLORADO...

CITY           SKY/WX    TMP DP  RH WIND       PRES   REMARKS
ASPEN          FAIR      40  12  32 CALM      30.12F
BUENA VISTA    FAIR      46  -2  13 SW10G22   30.07S
COPPER MTN     FAIR      27   3  36 W20G30    30.10F WCI  13
BERTHOUD PASS  FAIR      18   5  57 NW33G59   30.02R WCI  -3
COTTONWOOD PAS FAIR      41   1  19 W8G35     30.09S
GUNNISON       FAIR      42   4  20 SW15G22   30.14F
GRANBY         FAIR      36  10  33 W14G25    30.08F
KREMMLING      FAIR      45  10  24 W18G28    30.08F
LEADVILLE      FAIR      32   5  32 N14G21    30.10F WCI  22
MONARCH PASS   FAIR      21   7  53 W36G43    30.24S WCI   2
SALIDA         FAIR      49   3  15 W23G31    30.14F
SUNLIGHT       FAIR      27  14  59 SW8G22      N/A  WCI  18
WILKERSON PASS FAIR      32  -6  19 W10G20    30.12S WCI  24
$$

COZ069>075-172200-
...SAN LUIS VALLEY/SANGRE DE CRISTO MOUNTAINS...

CITY           SKY/WX    TMP DP  RH WIND       PRES   REMARKS
ALAMOSA        FAIR      46   4  17 E6        30.13F
DEL NORTE      FAIR      45  10  23 E8        30.13F
LA VETA PASS   FAIR      39   7  26 SW24G37   30.24F
SAGUACHE       FAIR      48  -6  10 NW22      30.12F
$$

COZ035-036-038>040-172200-
...NORTHERN COLORADO FRONT RANGE...

CITY           SKY/WX    TMP DP  RH WIND       PRES   REMARKS
DENVER INTL AP FAIR      54   7  15 S15G21    29.97F
AURORA         MOSUNNY   52  10  18 S9        29.99F
FRONT RANGE AP MOSUNNY   54   9  16 SE9G21    29.99F
ERIE MUNI ARPT FAIR      56   0  10 W16G23    29.99F
BOULDER MUN AP FAIR      54   5  14 W16G29    29.94F
CENTENNIAL     FAIR      52  10  18 VRB5      29.98F
BROOMFIELD     MOSUNNY   55   1  11 W18G24    29.97F
FORT COLLINS   FAIR      54  13  19 SE20      29.93F
LONGMONT       FAIR      58   5  12 S9        29.96F
$$

COZ041-046-047-076>085-087-088-172200-
...PIKES PEAK/PALMER DIVIDE AND SOUTHERN FOOTHILLS...

CITY           SKY/WX    TMP DP  RH WIND       PRES   REMARKS
COLO. SPRINGS  FAIR      48  14  25 S21       30.03F
A. F. ACADEMY  FAIR      49  10  21 S16G22    30.00F
SCHRIEVER AFB  NOT AVBL
CHEYENNE MTN   FAIR      44  11  25 S20G28    29.96F
ELLICOTT         N/A    N/A N/A N/A S16G24    30.03F
FALCON         FAIR      46   8  22 S16G23    30.04F
FORT CARSON    FAIR      50  15  24 SE18G24   30.02F
LIMON          FAIR      50   9  19 S14G22    30.03F
MONUMENT HILL  FAIR      43  14  31 S16G22    30.03F
CANON CITY     SUNNY     57  16  19 NE8G18    30.01F
WALSENBURG     NOT AVBL
TRINIDAD       FAIR      59  12  15 E9G18     30.02F
$$

COZ042>045-048>051-090-091-172200-
...NORTHEAST COLORADO...

CITY           SKY/WX    TMP DP  RH WIND       PRES   REMARKS
GREELEY ARPT   FAIR      53  12  19 S15       29.96F
AKRON          FAIR      47  13  25 SW10G17   30.01F
BURLINGTON     FAIR      52  11  19 NW7G18    30.07F
WRAY           FAIR      54   9  16 NW12      30.03F
YUMA           NOT AVBL
STERLING       FAIR      54  12  19 W16       29.95F
HOLYOKE        FAIR      54  14  20 NW12G24   30.02F
FORT MORGAN    FAIR      53   6  15 S10       30.00F
$$

COZ086-089-092>099-172200-
...SOUTHEAST COLORADO...

CITY           SKY/WX    TMP DP  RH WIND       PRES   REMARKS
PUEBLO         FAIR      56  16  20 S16       30.02F
LA JUNTA       FAIR      56  11  16 E15       30.06F
LAMAR          FAIR      56   9  15 MISG      30.07F
SPRINGFIELD      N/A     52   9  17 S9        30.10F
$$




USA.gov is the U.S. government's official web portal to all federal, state and local government web resources and services.